TimeMST,TemperatureF,Dew PointF,Humidity,Sea Level PressureIn,VisibilityMPH,Wind Direction,Wind SpeedMPH,Gust SpeedMPH,PrecipitationIn,Events,Conditions,WindDirDegrees,DateUTC
12:15 AM,19.9,14.7,80,30.34,10.0,NNW,4.6,-,N/A,,Clear,340,2013-11-08 07:15:00
12:35 AM,19.4,14.5,81,30.33,10.0,East,3.5,-,N/A,,Clear,80,2013-11-08 07:35:00
12:55 AM,18.9,14.7,84,30.33,10.0,Calm,Calm,-,N/A,,Clear,0,2013-11-08 07:55:00
1:15 AM,19.2,14.7,83,30.32,10.0,North,4.6,-,N/A,,Clear,10,2013-11-08 08:15:00
1:35 AM,18.9,14.5,83,30.32,10.0,Calm,Calm,-,N/A,,Clear,0,2013-11-08 08:35:00
1:55 AM,17.8,13.8,84,30.31,10.0,NNW,4.6,-,N/A,,Clear,340,2013-11-08 08:55:00
2:15 AM,17.2,13.5,85,30.31,10.0,Calm,Calm,-,N/A,,Clear,0,2013-11-08 09:15:00
2:35 AM,17.4,13.8,86,30.31,10.0,North,4.6,-,N/A,,Clear,350,2013-11-08 09:35:00
2:55 AM,17.1,13.1,84,30.31,10.0,Calm,Calm,-,N/A,,Clear,0,2013-11-08 09:55:00
3:15 AM,17.6,13.1,83,30.30,10.0,Calm,Calm,-,N/A,,Clear,0,2013-11-08 10:15:00
3:35 AM,17.2,13.3,84,30.29,10.0,NNE,4.6,-,N/A,,Clear,30,2013-11-08 10:35:00
3:55 AM,17.1,13.1,84,30.29,10.0,NNE,4.6,-,N/A,,Clear,30,2013-11-08 10:55:00
4:15 AM,16.9,13.5,86,30.28,10.0,North,6.9,-,N/A,,Clear,10,2013-11-08 11:15:00
4:35 AM,16.9,13.1,85,30.28,10.0,North,5.8,-,N/A,,Clear,10,2013-11-08 11:35:00
4:55 AM,17.1,13.3,85,30.28,10.0,Calm,Calm,-,N/A,,Clear,0,2013-11-08 11:55:00
5:15 AM,17.6,13.1,83,30.27,10.0,Calm,Calm,-,N/A,,Clear,0,2013-11-08 12:15:00
5:35 AM,16.3,12.4,84,30.27,10.0,North,5.8,-,N/A,,Clear,360,2013-11-08 12:35:00
5:55 AM,16.3,12.6,85,30.27,10.0,North,3.5,-,N/A,,Clear,360,2013-11-08 12:55:00
6:15 AM,17.4,12.9,83,30.26,10.0,Calm,Calm,-,N/A,,Clear,0,2013-11-08 13:15:00
6:35 AM,17.6,12.7,81,30.26,10.0,Calm,Calm,-,N/A,,Clear,0,2013-11-08 13:35:00
6:55 AM,18.0,13.5,83,30.26,10.0,North,4.6,-,N/A,,Clear,350,2013-11-08 13:55:00
7:15 AM,20.3,15.4,81,30.26,10.0,North,3.5,-,N/A,,Clear,350,2013-11-08 14:15:00
7:35 AM,26.1,18.9,74,30.27,10.0,Calm,Calm,-,N/A,,Clear,0,2013-11-08 14:35:00
7:55 AM,28.6,20.1,71,30.26,10.0,Calm,Calm,-,N/A,,Clear,0,2013-11-08 14:55:00
8:15 AM,32.2,21.4,64,30.26,10.0,Calm,Calm,-,N/A,,Clear,0,2013-11-08 15:15:00
8:35 AM,35.1,20.1,55,30.26,10.0,Calm,Calm,-,N/A,,Clear,0,2013-11-08 15:35:00
8:55 AM,38.8,20.3,47,30.26,10.0,Calm,Calm,-,N/A,,Clear,0,2013-11-08 15:55:00
9:15 AM,43.0,21.2,42,30.26,10.0,Calm,Calm,-,N/A,,Clear,0,2013-11-08 16:15:00
9:35 AM,46.2,21.7,38,30.25,10.0,Calm,Calm,-,N/A,,Clear,0,2013-11-08 16:35:00
9:55 AM,48.4,22.1,36,30.24,10.0,Calm,Calm,-,N/A,,Clear,0,2013-11-08 16:55:00
10:15 AM,52.7,23.9,33,30.23,10.0,Calm,Calm,-,N/A,,Clear,0,2013-11-08 17:15:00
10:35 AM,57.2,24.4,28,30.23,10.0,West,16.1,-,N/A,,Clear,260,2013-11-08 17:35:00
10:55 AM,57.4,21.0,24,30.22,10.0,West,13.8,19.6,N/A,,Clear,280,2013-11-08 17:55:00
11:15 AM,57.6,21.7,25,30.21,10.0,West,9.2,18.4,N/A,,Clear,280,2013-11-08 18:15:00
11:35 AM,58.8,21.9,24,30.20,10.0,West,11.5,17.3,N/A,,Clear,280,2013-11-08 18:35:00
11:55 AM,59.0,21.4,23,30.19,10.0,WNW,9.2,18.4,N/A,,Clear,290,2013-11-08 18:55:00
12:15 PM,59.4,21.4,23,30.17,10.0,West,9.2,-,N/A,,Clear,280,2013-11-08 19:15:00
12:35 PM,59.9,20.7,22,30.16,10.0,WNW,10.4,-,N/A,,Clear,290,2013-11-08 19:35:00
12:55 PM,60.1,20.8,22,30.14,10.0,WNW,9.2,-,N/A,,Clear,300,2013-11-08 19:55:00
1:15 PM,61.0,19.0,20,30.14,10.0,West,9.2,-,N/A,,Clear,270,2013-11-08 20:15:00
1:35 PM,60.8,19.8,21,30.14,10.0,WNW,9.2,18.4,N/A,,Clear,290,2013-11-08 20:35:00
1:55 PM,61.7,19.2,19,30.13,10.0,West,11.5,-,N/A,,Clear,280,2013-11-08 20:55:00
2:15 PM,61.3,17.8,19,30.13,10.0,West,6.9,-,N/A,,Clear,260,2013-11-08 21:15:00
2:35 PM,60.8,17.8,19,30.13,10.0,NW,4.6,-,N/A,,Clear,320,2013-11-08 21:35:00
2:55 PM,61.2,17.2,18,30.12,10.0,West,10.4,-,N/A,,Clear,280,2013-11-08 21:55:00
3:15 PM,60.6,18.5,20,30.11,10.0,WSW,13.8,-,N/A,,Clear,250,2013-11-08 22:15:00
3:35 PM,60.6,19.0,20,30.11,10.0,West,11.5,-,N/A,,Clear,270,2013-11-08 22:35:00
3:55 PM,59.4,20.3,22,30.12,10.0,West,11.5,-,N/A,,Clear,260,2013-11-08 22:55:00
4:15 PM,58.3,20.3,23,30.11,10.0,West,11.5,-,N/A,,Clear,260,2013-11-08 23:15:00
4:35 PM,56.5,20.8,25,30.12,10.0,WSW,9.2,-,N/A,,Clear,250,2013-11-08 23:35:00
4:55 PM,52.7,21.0,29,30.11,10.0,SW,8.1,-,N/A,,Clear,230,2013-11-08 23:55:00
5:15 PM,48.4,20.8,34,30.12,10.0,WSW,9.2,-,N/A,,Clear,250,2013-11-09 00:15:00
5:35 PM,46.4,20.3,36,30.12,10.0,WSW,10.4,-,N/A,,Clear,250,2013-11-09 00:35:00
5:55 PM,46.4,20.3,36,30.13,10.0,West,10.4,-,N/A,,Clear,260,2013-11-09 00:55:00
6:15 PM,46.6,20.7,36,30.14,10.0,West,8.1,-,N/A,,Clear,260,2013-11-09 01:15:00
6:35 PM,46.0,20.8,37,30.14,10.0,West,12.7,-,N/A,,Clear,260,2013-11-09 01:35:00
6:55 PM,47.8,21.0,35,30.13,10.0,West,13.8,-,N/A,,Clear,260,2013-11-09 01:55:00
7:15 PM,45.7,21.2,38,30.14,10.0,West,12.7,-,N/A,,Clear,260,2013-11-09 02:15:00
7:35 PM,45.7,21.2,38,30.14,10.0,West,10.4,-,N/A,,Clear,270,2013-11-09 02:35:00
7:55 PM,43.5,21.2,41,30.15,10.0,West,3.5,-,N/A,,Clear,260,2013-11-09 02:55:00
8:15 PM,42.6,21.2,43,30.15,10.0,West,6.9,-,N/A,,Clear,260,2013-11-09 03:15:00
8:35 PM,39.9,21.6,48,30.15,10.0,WSW,6.9,-,N/A,,Clear,240,2013-11-09 03:35:00
8:55 PM,39.7,21.2,48,30.16,10.0,West,4.6,-,N/A,,Clear,270,2013-11-09 03:55:00
9:15 PM,34.3,20.7,57,30.16,10.0,East,6.9,-,N/A,,Clear,80,2013-11-09 04:15:00
9:35 PM,34.9,21.2,57,30.16,10.0,ENE,4.6,-,N/A,,Clear,60,2013-11-09 04:35:00
9:55 PM,36.3,21.6,55,30.15,10.0,West,5.8,-,N/A,,Clear,280,2013-11-09 04:55:00
10:15 PM,42.3,22.6,46,30.16,10.0,WNW,9.2,-,N/A,,Clear,290,2013-11-09 05:15:00
10:35 PM,35.4,21.9,58,30.16,10.0,NW,4.6,-,N/A,,Clear,320,2013-11-09 05:35:00
10:55 PM,42.4,23.0,46,30.16,10.0,WNW,6.9,-,N/A,,Clear,300,2013-11-09 05:55:00
11:15 PM,32.0,21.4,65,30.16,10.0,ENE,6.9,-,N/A,,Clear,60,2013-11-09 06:15:00
11:35 PM,32.7,21.2,63,30.17,10.0,NE,9.2,-,N/A,,Clear,50,2013-11-09 06:35:00
11:55 PM,32.7,21.2,63,30.16,10.0,North,4.6,-,N/A,,Clear,10,2013-11-09 06:55:00